sat.trackr.live / text

‹ back to catalog

YAOGAN-35 01C

NORAD 49393 · 2021-101D

PAYLOAD ACTIVE UNKNOWN

§ Identity

Operator
Country
PRC
Launch date
2021-11-06
Launch site
XICLF
Launch vehicle
Mass (kg)
RCS (m²)

External: N2YO · Heavens-Above · Gunter

§ Orbital elements

Epoch: 2026-05-25T03:27:30.905280Z

Period
94.55 min
Inclination
35.0054°
Eccentricity
0.0007382
Mean motion
15.23069948 rev/d
Perigee alt
491.5 km
Apogee alt
501.7 km
Semi-major
6,874.7 km
B*
4.3043e-4
RAAN
49.8661°
Arg perigee
175.4164°
Mean anomaly
184.6620°
Rev number
25,349

§ Raw data

YAOGAN-35 01C1 49393U 21101D   26145.14410770  .00010375  00000+0  43043-3 0  99972 49393  35.0054  49.8661 0007382 175.4164 184.6620 15.23069948253496

JSON: /api/v1/satellites/49393 · /tle

For live sub-satellite position, see the globe view (requires WebGL).

§ Visibility from observer

Set your observer location to see the next 7 days of passes ≥ 10°. The values pass through the URL so the page stays shareable.

No JS? Fill the form by hand. The geolocation button needs JavaScript.